Georgetown, DE

5:34 PM EDT on April 24, 2018 (GMT -0400)
Sussex County

Weather History for KGED - March, 2014

Change the Weather History Date:

Monday, March 17, 2014

  Actual Average Record
Temperature  
Mean Temperature 29 °F 45 °F  
Max Temperature 31 °F 55 °F 77 °F (1990)
Min Temperature 27 °F 35 °F 18 °F (1966)
Degree Days  
Heating Degree Days 36 20  
Month to date heating degree days 447 382  
Since 1 July heating degree days 3802 3662  
Cooling Degree Days 0 0  
Month to date cooling degree days 0 0  
Year to date cooling degree days 0 0  
Moisture  
Dew Point 25 °F    
Average Humidity 81    
Maximum Humidity 92    
Minimum Humidity 69    
Precipitation  
Precipitation 0.18 in 0.14 in 1.40 in (1963)
Month to date precipitation 1.08 2.01  
Year to date precipitation 8.26 7.72  
Sea Level Pressure  
Sea Level Pressure 30.01 in    
Wind  
Wind Speed 15 mph (NE)    
Max Wind Speed 24 mph    
Max Gust Speed 29 mph    
Visibility 3 miles    
Events Fog , Snow    
T = Trace of Precipitation, MM = Missing Value Source: NWS Daily Summary

Daily Weather History Graph

Daily Weather History Graph

Search for Another Location

Airport or City:

Astronomy

Mar. 17, 2014 Rise Set
Actual Time 7:09 AM EDT 7:10 PM EDT
Civil Twilight 6:43 AM EDT 7:36 PM EDT
Nautical Twilight 6:12 AM EDT 8:07 PM EDT
Astronomical Twilight 5:41 AM EDT 8:39 PM EDT
Moon 8:23 PM EDT (3/17) 7:24 AM EDT (3/17)
Length of Visible Light 12h 53m
Length of Day
12h 00m
Full, 99% of the Moon is Illuminated
Mar 17
Full
Mar 23
Last Quarter
Mar 30
New
Apr 7
First Quarter
Apr 15
Full

Hourly Weather History & Observations

Time (EDT) Temp. Windchill Dew Point Humidity Pressure Visibility Wind Dir Wind Speed Gust Speed Precip Events Conditions
12:04 AM 30.0 °F 17.2 °F 28.0 °F 92% 30.04 in 1.0 mi NE 20.7 mph - 0.00 in Snow Light Snow
12:12 AM 30.0 °F 17.9 °F 27.0 °F 88% 30.04 in 1.2 mi NE 18.4 mph - 0.00 in Snow Light Snow
12:32 AM 30.0 °F 19.1 °F 27.0 °F 88% 30.03 in 1.0 mi NNE 15.0 mph 26.5 mph 0.00 in Snow Light Snow
12:39 AM 30.0 °F 20.0 °F 27.0 °F 88% 30.04 in 1.0 mi NE 12.7 mph 23.0 mph 0.00 in Snow Light Snow
12:51 AM 30.2 °F 18.1 °F 26.6 °F 86% 30.04 in 0.8 mi NE 18.4 mph 25.3 mph 0.00 in Snow Light Snow
12:54 AM 30.0 °F 17.9 °F 27.0 °F 88% 30.04 in 0.8 mi NE 18.4 mph 25.3 mph 0.01 in Snow Light Snow
1:20 AM 30.0 °F 17.5 °F 27.0 °F 88% 30.02 in 1.0 mi NE 19.6 mph - 0.01 in Snow Light Snow
1:26 AM 30.0 °F 18.7 °F 27.0 °F 88% 30.02 in 0.8 mi NE 16.1 mph - 0.01 in Snow Light Snow
1:38 AM 30.0 °F 18.3 °F 27.0 °F 88% 30.03 in 0.8 mi NE 17.3 mph 24.2 mph 0.01 in Snow Light Snow
1:50 AM 30.2 °F 18.5 °F 26.6 °F 86% 30.03 in 0.5 mi NE 17.3 mph - 0.01 in Fog , Snow Snow
1:54 AM 28.9 °F 16.5 °F 27.0 °F 92% 30.03 in 0.5 mi NE 18.4 mph - 0.01 in Fog , Snow Snow
2:54 AM 28.9 °F 17.7 °F 26.1 °F 89% 30.01 in 0.8 mi NE 15.0 mph - 0.02 in Snow Light Snow
3:54 AM 28.9 °F 17.7 °F 26.1 °F 89% 29.98 in 0.5 mi NNE 15.0 mph - 0.01 in Fog , Snow Snow
4:51 AM 28.4 °F 18.0 °F 26.6 °F 93% 29.97 in 1.0 mi NNE 12.7 mph - 0.03 in Snow Light Snow
4:54 AM 28.9 °F 17.7 °F 26.1 °F 89% 29.97 in 1.0 mi NNE 15.0 mph - 0.03 in Snow Light Snow
5:05 AM 28.9 °F 20.4 °F 26.1 °F 89% 29.96 in 1.5 mi NNE 9.2 mph - 0.00 in Snow Light Snow
5:13 AM 28.9 °F 18.6 °F 26.1 °F 89% 29.96 in 1.8 mi NNE 12.7 mph - 0.01 in Snow Light Snow
5:25 AM 28.9 °F 18.6 °F 26.1 °F 89% 29.97 in 1.0 mi NNE 12.7 mph 19.6 mph 0.01 in Snow Light Snow
5:54 AM 28.9 °F 18.6 °F 26.1 °F 89% 29.97 in 1.0 mi NNE 12.7 mph - 0.01 in Snow Light Snow
6:01 AM 28.9 °F 17.7 °F 26.1 °F 89% 29.96 in 1.2 mi NNE 15.0 mph - 0.00 in Snow Light Snow
6:15 AM 28.9 °F 18.6 °F 26.1 °F 89% 29.96 in 1.0 mi NNE 12.7 mph - 0.00 in Snow Light Snow
6:28 AM 28.9 °F 18.2 °F 27.0 °F 92% 29.96 in 0.8 mi NNE 13.8 mph - 0.00 in Snow Light Snow
6:38 AM 28.9 °F 17.7 °F 27.0 °F 92% 29.97 in 1.0 mi NNE 15.0 mph - 0.00 in Snow Light Snow
6:54 AM 30.0 °F 18.7 °F 27.0 °F 88% 29.97 in 1.2 mi NE 16.1 mph 23.0 mph 0.00 in Snow Light Snow
7:14 AM 28.9 °F 15.4 °F 26.1 °F 89% 29.96 in 2.0 mi NE 21.9 mph 28.8 mph 0.00 in Snow Light Snow
7:22 AM 28.9 °F 16.1 °F 26.1 °F 89% 29.97 in 2.0 mi NE 19.6 mph 28.8 mph 0.00 in Snow Light Snow
7:29 AM 28.9 °F 16.5 °F 25.0 °F 85% 29.96 in 1.8 mi NE 18.4 mph - 0.00 in Snow Light Snow
7:47 AM 28.9 °F 16.1 °F 25.0 °F 85% 29.99 in 2.0 mi NE 19.6 mph 27.6 mph 0.00 in Snow Light Snow
7:54 AM 28.9 °F 15.1 °F 25.0 °F 85% 29.98 in 2.0 mi NE 23.0 mph 28.8 mph 0.00 in Snow Light Snow
8:04 AM 28.9 °F 16.5 °F 25.0 °F 85% 29.99 in 1.8 mi NNE 18.4 mph 25.3 mph 0.00 in Snow Light Snow
8:36 AM 28.9 °F 16.5 °F 25.0 °F 85% 29.99 in 1.8 mi NE 18.4 mph 27.6 mph 0.00 in Snow Light Snow
8:54 AM 28.9 °F 18.2 °F 25.0 °F 85% 29.99 in 1.2 mi NNE 13.8 mph - 0.00 in Snow Light Snow
9:25 AM 28.9 °F 16.1 °F 25.0 °F 85% 29.99 in 1.2 mi NNE 19.6 mph 24.2 mph 0.00 in Snow Light Snow
9:54 AM 28.9 °F 16.9 °F 25.0 °F 85% 29.99 in 1.2 mi NE 17.3 mph 21.9 mph 0.00 in Snow Light Snow
10:37 AM 28.9 °F 17.7 °F 24.1 °F 82% 30.00 in 1.0 mi NNE 15.0 mph 25.3 mph 0.00 in Snow Light Snow
10:46 AM 28.0 °F 17.0 °F 24.1 °F 85% 30.00 in 1.2 mi NNE 13.8 mph - 0.00 in Snow Light Snow
10:54 AM 28.0 °F 18.1 °F 24.1 °F 85% 30.01 in 1.8 mi NNE 11.5 mph 20.7 mph 0.00 in Snow Light Snow
11:45 AM 28.9 °F 18.2 °F 24.1 °F 82% 30.02 in 2.0 mi NNE 13.8 mph 20.7 mph 0.00 in Snow Light Snow
11:54 AM 28.9 °F 16.9 °F 23.0 °F 78% 30.00 in 2.5 mi NNE 17.3 mph - 0.00 in Snow Light Snow
12:49 PM 28.4 °F 16.2 °F 23.0 °F 80% 30.00 in 3.0 mi NNE 17.3 mph 26.5 mph 0.00 in Snow Light Snow
12:54 PM 28.9 °F 16.9 °F 23.0 °F 78% 30.01 in 3.0 mi NNE 17.3 mph 26.5 mph 0.00 in Snow Light Snow
1:54 PM 28.0 °F 18.1 °F 23.0 °F 81% 30.01 in 5.0 mi NNE 11.5 mph 20.7 mph 0.00 in Snow Light Snow
2:13 PM 28.0 °F 17.0 °F 21.9 °F 78% 30.01 in 1.8 mi NNE 13.8 mph 23.0 mph 0.00 in Snow Light Snow
2:34 PM 28.0 °F 16.5 °F 23.0 °F 81% 30.01 in 1.0 mi NNE 15.0 mph 20.7 mph 0.00 in Snow Light Snow
2:41 PM 28.0 °F 18.1 °F 23.0 °F 81% 30.02 in 1.2 mi NNE 11.5 mph - 0.00 in Snow Light Snow
2:54 PM 28.0 °F 17.5 °F 23.0 °F 81% 30.01 in 1.5 mi NNE 12.7 mph 24.2 mph 0.00 in Snow Light Snow
3:31 PM 27.0 °F 16.1 °F 23.0 °F 85% 30.00 in 2.5 mi NNE 12.7 mph 20.7 mph 0.00 in Snow Light Snow
3:43 PM 28.0 °F 16.1 °F 23.0 °F 81% 30.01 in 3.0 mi NNE 16.1 mph 23.0 mph 0.00 in Snow Light Snow
3:54 PM 28.0 °F 18.6 °F 23.0 °F 81% 30.01 in 4.0 mi NNE 10.4 mph - 0.00 in Snow Light Snow
4:54 PM 28.9 °F 17.3 °F 24.1 °F 82% 30.01 in 5.0 mi NNE 16.1 mph - 0.00 in Snow Light Snow
5:04 PM 28.9 °F 16.1 °F 24.1 °F 82% 30.01 in 1.8 mi NE 19.6 mph - 0.00 in Snow Light Snow
5:54 PM 28.9 °F 17.3 °F 25.0 °F 85% 30.04 in 1.5 mi NE 16.1 mph - 0.00 in Snow Light Snow
6:15 PM 28.9 °F 17.7 °F 25.0 °F 85% 30.02 in 2.5 mi NE 15.0 mph - 0.00 in Snow Light Snow
6:25 PM 28.9 °F 16.9 °F 25.0 °F 85% 30.03 in 3.0 mi NE 17.3 mph - 0.00 in Snow Light Snow
6:54 PM 30.0 °F 18.7 °F 24.1 °F 79% 30.04 in 10.0 mi NE 16.1 mph - 0.00 in   Overcast
7:07 PM 30.0 °F 18.7 °F 24.1 °F 79% 30.04 in 10.0 mi NE 16.1 mph - N/A   Overcast
7:54 PM 30.0 °F 17.5 °F 23.0 °F 75% 30.03 in 10.0 mi NE 19.6 mph - N/A   Overcast
8:54 PM 30.0 °F 19.1 °F 21.9 °F 72% 30.07 in 10.0 mi NE 15.0 mph - N/A   Overcast
9:54 PM 30.0 °F 20.5 °F 21.0 °F 69% 30.09 in 10.0 mi NNE 11.5 mph 21.9 mph N/A   Overcast
10:08 PM 30.0 °F 19.1 °F 21.0 °F 69% 30.09 in 10.0 mi NE 15.0 mph - N/A   Overcast
10:54 PM 30.0 °F 20.0 °F 21.0 °F 69% 30.09 in 10.0 mi NE 12.7 mph - N/A   Overcast
11:54 PM 30.9 °F 21.7 °F 21.9 °F 69% 30.09 in 10.0 mi NE 11.5 mph - N/A   Overcast